Location: Mentone
(34.5413°N, 85.5351°W)
Time: 05:01:40
(UTC-05:00)

Transit 2A Rocket - Visible Passes

Search period start: 25 July 2016 00:00
Search period end: 04 August 2016 00:00
Orbit: 584 x 921 km, 66.7° (Epoch: 24 July)

Date Brightness Start Highest point End Pass type
(mag) Time Alt. Az. Time Alt. Az. Time Alt. Az.
25 Jul 7.2 04:24:13 10° SSE 04:28:36 24° ESE 04:33:14 10° NE visible
26 Jul 7.7 03:44:13 10° SE 03:46:40 13° E 03:49:11 10° ENE visible
27 Jul 5.7 04:40:39 10° SSW 04:46:09 63° ESE 04:52:07 10° NNE visible
28 Jul 6.5 03:59:45 14° SSE 04:04:02 35° ESE 04:09:25 10° NE visible
29 Jul 7.2 03:19:03 14° SE 03:22:01 20° ESE 03:26:12 10° ENE visible
29 Jul 5.6 04:59:00 12° SW 05:04:08 53° WNW 05:10:05 10° NNE visible
30 Jul 7.7 02:39:12 10° ESE 02:40:07 10° E 02:41:03 10° E visible
30 Jul 5.2 04:18:15 25° SSW 04:21:46 89° NW 04:27:52 10° NNE visible
31 Jul 5.8 03:37:28 36° SSE 03:39:31 53° ESE 03:45:23 10° NE visible
31 Jul 6.7 05:17:56 10° WSW 05:22:32 24° NW 05:27:20 10° N visible
01 Aug 6.5 02:56:37 29° ESE 02:57:26 30° ESE 03:02:34 10° NE visible
01 Aug 6.1 04:36:34 21° WSW 04:39:54 38° NW 04:45:32 10° N visible
02 Aug 7.3 02:15:44 17° E 02:15:44 17° E 02:19:04 10° ENE visible
02 Aug 5.4 03:55:40 43° WSW 03:57:25 63° WNW 04:03:28 10° NNE visible
03 Aug 5.2 03:14:43 74° SSE 03:15:05 78° ESE 03:21:11 10° NNE visible
03 Aug 7.1 04:54:39 10° W 04:58:28 17° NW 05:02:23 10° N visible
